[[{"header":{"parameterUnit":"m.s-1","parameterCategory":1,"la1":30.2992,"la2":30.254,"lo1":-89.0895,"lo2":-89.0443,"dy":0.0025,"dx":0.0025,"nx":19,"ny":19,"refTime":"2026-05-11T09:00:00:Z","depth":0,"parameterNumber":2,"parameterNumberName":"U-component_of_WINDS"},"data":[0,0,0,-3.2717,-3.2724,-3.303,-3.3031,-3.3441,-3.3444,0,0,0,0,0,0,0,0,0,0,0,-3.2632,-3.2635,-3.2717,-3.2725,-3.303,-3.3031,-3.344,-3.3444,0,0,0,0,0,0,0,0,0,0,0,-3.263,-3.2634,-3.2637,-3.2726,-3.303,-3.3031,-3.3439,-3.3203,0,0,0,0,0,0,0,0,0,0,-3.2903,-3.2828,-3.2633,-3.2638,-3.2727,-3.3029,-3.3032,-3.3192,-3.3218,-3.3308,0,-3.3384,0,-3.342,-3.3472,-3.3474,0,0,0,-3.2722,-3.2806,-3.2883,-3.2638,-3.273,-3.3029,-3.2891,-3.3206,-3.3236,-3.3343,-3.339,-3.3405,-3.3427,-3.3475,-3.3477,-3.3993,-3.3995,0,0,-3.2705,-3.2691,-3.2863,-3.2903,-3.285,-3.2882,-3.2901,-3.3224,-3.3276,-3.3391,-3.3414,-3.3434,-3.3478,-3.3481,-3.399,-3.3993,0,0,0,-3.2658,-3.2679,-3.2748,-3.2886,-3.294,-3.2891,-3.2913,-3.3262,-3.3285,-3.3418,-3.3439,-3.348,-3.3485,-3.3988,-3.3991,-3.4102,0,0,0,-3.2648,-3.2652,-3.2741,-3.2735,-3.2934,-3.3104,-3.2944,-3.3263,-3.33,-3.3437,-3.348,-3.3489,-3.3985,-3.399,-3.4093,-3.4158,0,0,0,-3.261,-3.2647,-3.2693,-3.2734,-3.2864,-3.3098,-3.314,-3.3271,-3.3313,-3.3474,-3.349,-3.3983,-3.3989,-3.4085,-3.4145,-3.4292,0,0,0,-3.2567,-3.2787,-3.2694,-3.2949,-3.2862,-3.3162,-3.3138,-3.3364,-3.3515,-3.3482,-3.3985,-3.3991,-3.4082,-3.4137,-3.4283,-3.4414,-3.4466,0,0,-3.2837,-3.2819,-3.297,-3.2896,-3.3209,-3.3117,-3.3449,-3.3603,-3.3634,-3.3873,-3.3886,-3.4096,-3.4144,-3.429,-3.4759,-3.48,0,0,0,-3.3052,-3.316,-3.3246,-3.3387,-3.3508,-3.3619,-3.3722,-3.3781,-3.3984,-3.3751,-3.4187,-3.4217,-3.4303,-3.4367,-3.4402,-3.4479,-3.4019,-3.4018,-3.4017,-3.3416,-3.344,-3.3693,-3.3755,-3.3893,-3.3998,-3.4115,-3.4212,-3.4198,-3.4301,-3.4373,-3.4654,-3.4728,-3.4754,-3.4834,-3.4441,-3.4442,-3.4442,-3.4443,-3.3817,-3.3977,-3.3951,-3.4187,-3.4214,-3.4416,-3.4527,-3.4511,-3.4706,-3.4601,-3.4678,-3.4564,-3.4798,-3.487,-3.4451,-3.445,-3.4449,-3.4448,-3.4447,-3.4061,-3.4142,-3.4205,-3.4413,-3.4573,-3.463,-3.4817,-3.4835,-3.4854,-3.493,-3.5011,-3.501,-3.5013,-3.4967,-3.4968,-3.4969,-3.497,-3.497,-3.4971,-3.429,-3.4358,-3.4511,-3.4658,-3.4753,-3.488,-3.4989,-3.5085,-3.5196,-3.5195,-3.5196,-3.5175,-3.4814,-3.4725,-3.4986,-3.4984,-3.4982,-3.498,-3.4979,-3.4693,-3.4604,-3.4841,-3.4936,-3.5112,-3.5272,-3.5291,-3.5485,-3.5566,-3.566,-3.5622,-3.5351,-3.5336,-3.5308,-3.5235,-3.5612,-3.5612,-3.5612,-3.5612,-3.4901,-3.4893,-3.5141,-3.5292,-3.5442,-3.5483,-3.5758,-3.5847,-3.5926,-3.5979,-3.5927,-3.583,-3.5801,-3.5804,-3.5765,-3.5697,-3.6184,-3.6184,-3.6185,-3.5152,-3.516,-3.5387,-3.5458,-3.5598,-3.5719,-3.5979,-3.6159,-3.623,-3.6209,-3.6023,-3.5999,-3.5843,-3.579,-3.5767,-3.5707,-3.5583,0,0]},{"header":{"parameterUnit":"m.s-1","parameterCategory":1,"la1":30.2992,"la2":30.254,"lo1":-89.0895,"lo2":-89.0443,"dy":0.0025,"dx":0.0025,"nx":19,"ny":19,"refTime":"2026-05-11T09:00:00:Z","depth":0,"parameterNumber":3,"parameterNumberName":"V-component_of_WINDS"},"data":[0,0,0,-1.2718,-1.2712,-1.2373,-1.2371,-1.1973,-1.197,0,0,0,0,0,0,0,0,0,0,0,-1.2847,-1.2845,-1.2719,-1.2711,-1.2373,-1.2371,-1.1974,-1.197,0,0,0,0,0,0,0,0,0,0,0,-1.2848,-1.2846,-1.2844,-1.271,-1.2373,-1.2371,-1.1975,-1.2216,0,0,0,0,0,0,0,0,0,0,-1.2539,-1.2686,-1.2846,-1.2844,-1.2708,-1.2374,-1.2371,-1.2227,-1.2201,-1.2144,0,-1.2107,0,-1.2033,-1.1946,-1.1945,0,0,0,-1.2689,-1.2708,-1.2592,-1.2843,-1.2706,-1.2374,-1.2519,-1.2212,-1.2183,-1.211,-1.2101,-1.2085,-1.2026,-1.1944,-1.1942,-1.1703,-1.1703,0,0,-1.2708,-1.28,-1.2613,-1.2575,-1.2636,-1.253,-1.2509,-1.2194,-1.2187,-1.2099,-1.2075,-1.202,-1.1942,-1.1939,-1.1703,-1.1703,0,0,0,-1.2777,-1.2814,-1.2704,-1.2592,-1.2529,-1.2521,-1.2496,-1.2201,-1.2158,-1.207,-1.2015,-1.194,-1.1935,-1.1703,-1.1703,-1.1791,0,0,0,-1.2787,-1.2854,-1.2714,-1.2767,-1.2536,-1.2362,-1.2512,-1.218,-1.2141,-1.2017,-1.194,-1.1932,-1.1703,-1.1703,-1.1789,-1.1817,0,0,0,-1.2859,-1.2862,-1.2823,-1.2772,-1.263,-1.2365,-1.2303,-1.2169,-1.2109,-1.1945,-1.1931,-1.1703,-1.1703,-1.1786,-1.1813,-1.178,0,0,0,-1.2962,-1.2905,-1.2826,-1.274,-1.2634,-1.2425,-1.2304,-1.2142,-1.2012,-1.1938,-1.1703,-1.1703,-1.1786,-1.181,-1.1779,-1.177,-1.1775,0,0,-1.294,-1.2905,-1.2847,-1.2767,-1.2596,-1.2469,-1.2306,-1.2098,-1.1994,-1.1804,-1.1797,-1.1789,-1.1812,-1.178,-1.1774,-1.178,0,0,0,-1.2871,-1.2831,-1.2765,-1.2648,-1.2491,-1.2355,-1.2162,-1.2084,-1.1919,-1.1918,-1.1766,-1.1777,-1.1754,-1.1745,-1.1749,-1.1722,-1.1703,-1.1703,-1.1703,-1.2973,-1.2848,-1.2742,-1.2576,-1.2463,-1.2265,-1.216,-1.2019,-1.1924,-1.189,-1.1833,-1.1845,-1.1839,-1.1841,-1.1815,-1.1818,-1.1818,-1.1818,-1.1818,-1.2929,-1.2851,-1.2727,-1.2581,-1.2446,-1.2319,-1.2123,-1.2059,-1.1918,-1.1878,-1.1851,-1.1819,-1.1851,-1.1821,-1.1824,-1.1823,-1.1822,-1.1822,-1.1821,-1.2981,-1.2922,-1.2831,-1.2648,-1.2519,-1.235,-1.2221,-1.2102,-1.1988,-1.1962,-1.1887,-1.1885,-1.1867,-1.1935,-1.1935,-1.1935,-1.1935,-1.1935,-1.1935,-1.3072,-1.2966,-1.2875,-1.2702,-1.261,-1.2474,-1.2272,-1.2176,-1.2038,-1.1961,-1.196,-1.1866,-1.1879,-1.1884,-1.1935,-1.1935,-1.1935,-1.1935,-1.1935,-1.3074,-1.3054,-1.2914,-1.2823,-1.2608,-1.2487,-1.2337,-1.2151,-1.2054,-1.1993,-1.1903,-1.1933,-1.1887,-1.1882,-1.1886,-1.1933,-1.1933,-1.1933,-1.1933,-1.3118,-1.3084,-1.2912,-1.2773,-1.2623,-1.2473,-1.2312,-1.2152,-1.1983,-1.1914,-1.1889,-1.1884,-1.1885,-1.1837,-1.1833,-1.1835,-1.1868,-1.1868,-1.1868,-1.3111,-1.3057,-1.2946,-1.2786,-1.2608,-1.2457,-1.23,-1.214,-1.1943,-1.1863,-1.1856,-1.1859,-1.1848,-1.1852,-1.1773,-1.177,-1.177,0,0]}]]